Year,Month,Day,Hour,Minute,Value (Times are PST for temperature in C)
2006,09,11,00,00,12.20
2006,09,11,00,01,12.20
2006,09,11,00,02,12.20
2006,09,11,00,03,12.20
2006,09,11,00,04,12.20
2006,09,11,00,05,12.20
2006,09,11,00,06,12.20
2006,09,11,00,07,12.20
2006,09,11,00,08,12.20
2006,09,11,00,09,12.20
2006,09,11,00,10,12.20
2006,09,11,00,11,12.10
2006,09,11,00,12,12.10
2006,09,11,00,13,12.10
2006,09,11,00,14,12.10
2006,09,11,00,15,12.10
2006,09,11,00,16,12.10
2006,09,11,00,17,12.10
2006,09,11,00,18,12.10
2006,09,11,00,19,12.00
2006,09,11,00,20,12.00
2006,09,11,00,21,12.00
2006,09,11,00,22,12.00
2006,09,11,00,23,12.00
2006,09,11,00,24,11.90
2006,09,11,00,25,11.90
2006,09,11,00,26,11.90
2006,09,11,00,27,11.90
2006,09,11,00,28,11.90
2006,09,11,00,29,11.90
2006,09,11,00,30,11.90
2006,09,11,00,31,11.90
2006,09,11,00,32,11.90
2006,09,11,00,33,11.90
2006,09,11,00,34,11.90
2006,09,11,00,35,11.90
2006,09,11,00,36,11.90
2006,09,11,00,37,11.90
2006,09,11,00,38,11.90
2006,09,11,00,39,11.90
2006,09,11,00,40,11.90
2006,09,11,00,41,11.80
2006,09,11,00,42,11.80
2006,09,11,00,43,11.80
2006,09,11,00,44,11.80
2006,09,11,00,45,11.70
2006,09,11,00,46,11.70
2006,09,11,00,47,11.70
2006,09,11,00,48,11.70
2006,09,11,00,49,11.60
2006,09,11,00,50,11.60
2006,09,11,00,51,11.60
2006,09,11,00,52,11.60
2006,09,11,00,53,11.60
2006,09,11,00,54,11.60
2006,09,11,00,55,11.60
2006,09,11,00,56,11.60
2006,09,11,00,57,11.60
2006,09,11,00,58,11.60
2006,09,11,00,59,11.60
2006,09,11,01,00,11.60
2006,09,11,01,01,11.50
2006,09,11,01,02,11.50
2006,09,11,01,03,11.50
2006,09,11,01,04,11.40
2006,09,11,01,05,11.40
2006,09,11,01,06,11.40
2006,09,11,01,07,11.40
2006,09,11,01,08,11.40
2006,09,11,01,09,11.40
2006,09,11,01,10,11.50
2006,09,11,01,11,11.50
2006,09,11,01,12,11.50
2006,09,11,01,13,11.50
2006,09,11,01,14,11.60
2006,09,11,01,15,11.60
2006,09,11,01,16,11.60
2006,09,11,01,17,11.60
2006,09,11,01,18,11.60
2006,09,11,01,19,11.60
2006,09,11,01,20,11.70
2006,09,11,01,21,11.70
2006,09,11,01,22,11.70
2006,09,11,01,23,11.70
2006,09,11,01,24,11.70
2006,09,11,01,25,11.60
2006,09,11,01,26,11.60
2006,09,11,01,27,11.60
2006,09,11,01,28,11.60
2006,09,11,01,29,11.50
2006,09,11,01,30,11.50
2006,09,11,01,31,11.50
2006,09,11,01,32,11.50
2006,09,11,01,33,11.50
2006,09,11,01,34,11.50
2006,09,11,01,35,11.50
2006,09,11,01,36,11.50
2006,09,11,01,37,11.50
2006,09,11,01,38,11.50
2006,09,11,01,39,11.50
2006,09,11,01,40,11.50
2006,09,11,01,41,11.50
2006,09,11,01,42,11.50
2006,09,11,01,43,11.50
2006,09,11,01,44,11.50
2006,09,11,01,45,11.50
2006,09,11,01,46,11.50
2006,09,11,01,47,11.50
2006,09,11,01,48,11.50
2006,09,11,01,49,11.50
2006,09,11,01,50,11.40
2006,09,11,01,51,11.40
2006,09,11,01,52,11.40
2006,09,11,01,53,11.40
2006,09,11,01,54,11.40
2006,09,11,01,55,11.40
2006,09,11,01,56,11.40
2006,09,11,01,57,11.40
2006,09,11,01,58,11.30
2006,09,11,01,59,11.30
2006,09,11,02,00,11.30
2006,09,11,02,01,11.30
2006,09,11,02,02,11.30
2006,09,11,02,03,11.30
2006,09,11,02,04,11.30
2006,09,11,02,05,11.30
2006,09,11,02,06,11.30
2006,09,11,02,07,11.30
2006,09,11,02,08,11.30
2006,09,11,02,09,11.30
2006,09,11,02,10,11.30
2006,09,11,02,11,11.20
2006,09,11,02,12,11.20
2006,09,11,02,13,11.20
2006,09,11,02,14,11.10
2006,09,11,02,15,11.10
2006,09,11,02,16,11.10
2006,09,11,02,17,11.00
2006,09,11,02,18,11.00
2006,09,11,02,19,10.90
2006,09,11,02,20,10.90
2006,09,11,02,21,10.90
2006,09,11,02,22,10.80
2006,09,11,02,23,10.80
2006,09,11,02,24,10.80
2006,09,11,02,25,10.70
2006,09,11,02,26,10.70
2006,09,11,02,27,10.70
2006,09,11,02,28,10.60
2006,09,11,02,29,10.60
2006,09,11,02,30,10.60
2006,09,11,02,31,10.60
2006,09,11,02,32,10.50
2006,09,11,02,33,10.50
2006,09,11,02,34,10.50
2006,09,11,02,35,10.50
2006,09,11,02,36,10.50
2006,09,11,02,37,10.50
2006,09,11,02,38,10.50
2006,09,11,02,39,10.50
2006,09,11,02,40,10.50
2006,09,11,02,41,10.50
2006,09,11,02,42,10.50
2006,09,11,02,43,10.50
2006,09,11,02,44,10.50
2006,09,11,02,45,10.50
2006,09,11,02,46,10.50
2006,09,11,02,47,10.50
2006,09,11,02,48,10.50
2006,09,11,02,49,10.50
2006,09,11,02,50,10.50
2006,09,11,02,51,10.50
2006,09,11,02,52,10.50
2006,09,11,02,53,10.50
2006,09,11,02,54,10.50
2006,09,11,02,55,10.50
2006,09,11,02,56,10.50
2006,09,11,02,57,10.50
2006,09,11,02,58,10.50
2006,09,11,02,59,10.50
2006,09,11,03,00,10.50
2006,09,11,03,01,10.50
2006,09,11,03,02,10.60
2006,09,11,03,03,10.60
2006,09,11,03,04,10.60
2006,09,11,03,05,10.60
2006,09,11,03,06,10.60
2006,09,11,03,07,10.60
2006,09,11,03,08,10.60
2006,09,11,03,09,10.60
2006,09,11,03,10,10.60
2006,09,11,03,11,10.60
2006,09,11,03,12,10.60
2006,09,11,03,13,10.50
2006,09,11,03,14,10.50
2006,09,11,03,15,10.50
2006,09,11,03,16,10.50
2006,09,11,03,17,10.50
2006,09,11,03,18,10.50
2006,09,11,03,19,10.40
2006,09,11,03,20,10.40
2006,09,11,03,21,10.40
2006,09,11,03,22,10.40
2006,09,11,03,23,10.40
2006,09,11,03,24,10.40
2006,09,11,03,25,10.40
2006,09,11,03,26,10.40
2006,09,11,03,27,10.40
2006,09,11,03,28,10.40
2006,09,11,03,29,10.30
2006,09,11,03,30,10.30
2006,09,11,03,31,10.30
2006,09,11,03,32,10.30
2006,09,11,03,33,10.40
2006,09,11,03,34,10.40
2006,09,11,03,35,10.40
2006,09,11,03,36,10.30
2006,09,11,03,37,10.30
2006,09,11,03,38,10.30
2006,09,11,03,39,10.30
2006,09,11,03,40,10.30
2006,09,11,03,41,10.30
2006,09,11,03,42,10.30
2006,09,11,03,43,10.30
2006,09,11,03,44,10.30
2006,09,11,03,45,10.30
2006,09,11,03,46,10.30
2006,09,11,03,47,10.30
2006,09,11,03,48,10.30
2006,09,11,03,49,10.30
2006,09,11,03,50,10.30
2006,09,11,03,51,10.30
2006,09,11,03,52,10.30
2006,09,11,03,53,10.30
2006,09,11,03,54,10.30
2006,09,11,03,55,10.30
2006,09,11,03,56,10.20
2006,09,11,03,57,10.20
2006,09,11,03,58,10.10
2006,09,11,03,59,10.10
2006,09,11,04,00,10.10
2006,09,11,04,01,10.10
2006,09,11,04,02,10.00
2006,09,11,04,03,10.00
2006,09,11,04,04,10.00
2006,09,11,04,05,9.90
2006,09,11,04,06,9.90
2006,09,11,04,07,9.90
2006,09,11,04,08,9.90
2006,09,11,04,09,9.80
2006,09,11,04,10,9.80
2006,09,11,04,11,9.80
2006,09,11,04,12,9.80
2006,09,11,04,13,9.80
2006,09,11,04,14,9.70
2006,09,11,04,15,9.70
2006,09,11,04,16,9.70
2006,09,11,04,17,9.70
2006,09,11,04,18,9.70
2006,09,11,04,19,9.60
2006,09,11,04,20,9.60
2006,09,11,04,21,9.60
2006,09,11,04,22,9.60
2006,09,11,04,23,9.60
2006,09,11,04,24,9.50
2006,09,11,04,25,9.50
2006,09,11,04,26,9.40
2006,09,11,04,27,9.40
2006,09,11,04,28,9.40
2006,09,11,04,29,9.40
2006,09,11,04,30,9.40
2006,09,11,04,31,9.40
2006,09,11,04,32,9.50
2006,09,11,04,33,9.50
2006,09,11,04,34,9.50
2006,09,11,04,35,9.50
2006,09,11,04,36,9.50
2006,09,11,04,37,9.50
2006,09,11,04,38,9.40
2006,09,11,04,39,9.40
2006,09,11,04,40,9.40
2006,09,11,04,41,9.40
2006,09,11,04,42,9.40
2006,09,11,04,43,9.40
2006,09,11,04,44,9.40
2006,09,11,04,45,9.40
2006,09,11,04,46,9.40
2006,09,11,04,47,9.50
2006,09,11,04,48,9.50
2006,09,11,04,49,9.50
2006,09,11,04,50,9.50
2006,09,11,04,51,9.50
2006,09,11,04,52,9.50
2006,09,11,04,53,9.50
2006,09,11,04,54,9.50
2006,09,11,04,55,9.50
2006,09,11,04,56,9.50
2006,09,11,04,57,9.50
2006,09,11,04,58,9.60
2006,09,11,04,59,9.60
2006,09,11,05,00,9.50
2006,09,11,05,01,9.50
2006,09,11,05,02,9.50
2006,09,11,05,03,9.40
2006,09,11,05,04,9.40
2006,09,11,05,05,9.40
2006,09,11,05,06,9.40
2006,09,11,05,07,9.40
2006,09,11,05,08,9.40
2006,09,11,05,09,9.40
2006,09,11,05,10,9.40
2006,09,11,05,11,9.40
2006,09,11,05,12,9.40
2006,09,11,05,13,9.40
2006,09,11,05,14,9.40
2006,09,11,05,15,9.40
2006,09,11,05,16,9.40
2006,09,11,05,17,9.40
2006,09,11,05,18,9.40
2006,09,11,05,19,9.40
2006,09,11,05,20,9.40
2006,09,11,05,21,9.30
2006,09,11,05,22,9.30
2006,09,11,05,23,9.30
2006,09,11,05,24,9.20
2006,09,11,05,25,9.20
2006,09,11,05,26,9.20
2006,09,11,05,27,9.20
2006,09,11,05,28,9.20
2006,09,11,05,29,9.10
2006,09,11,05,30,9.10
2006,09,11,05,31,9.10
2006,09,11,05,32,9.10
2006,09,11,05,33,9.10
2006,09,11,05,34,9.10
2006,09,11,05,35,9.10
2006,09,11,05,36,9.00
2006,09,11,05,37,9.00
2006,09,11,05,38,9.00
2006,09,11,05,39,9.00
2006,09,11,05,40,8.90
2006,09,11,05,41,8.90
2006,09,11,05,42,8.90
2006,09,11,05,43,8.90
2006,09,11,05,44,8.90
2006,09,11,05,45,9.00
2006,09,11,05,46,8.90
2006,09,11,05,47,9.00
2006,09,11,05,48,8.90
2006,09,11,05,49,8.90
2006,09,11,05,50,9.00
2006,09,11,05,51,9.00
2006,09,11,05,52,9.00
2006,09,11,05,53,9.00
2006,09,11,05,54,9.00
2006,09,11,05,55,9.00
2006,09,11,05,56,9.00
2006,09,11,05,57,9.00
2006,09,11,05,58,9.00
2006,09,11,05,59,9.00
2006,09,11,06,00,9.00
2006,09,11,06,01,9.00
2006,09,11,06,02,9.00
2006,09,11,06,03,8.90
2006,09,11,06,04,8.90
2006,09,11,06,05,8.90
2006,09,11,06,06,8.90
2006,09,11,06,07,8.90
2006,09,11,06,08,8.90
2006,09,11,06,09,8.90
2006,09,11,06,10,8.90
2006,09,11,06,11,8.90
2006,09,11,06,12,8.90
2006,09,11,06,13,8.90
2006,09,11,06,14,8.90
2006,09,11,06,15,8.90
2006,09,11,06,16,8.90
2006,09,11,06,17,8.90
2006,09,11,06,18,8.90
2006,09,11,06,19,8.90
2006,09,11,06,20,8.90
2006,09,11,06,21,8.90
2006,09,11,06,22,9.00
2006,09,11,06,23,8.90
2006,09,11,06,24,9.00
2006,09,11,06,25,9.00
2006,09,11,06,26,9.00
2006,09,11,06,27,9.00
2006,09,11,06,28,9.10
2006,09,11,06,29,9.10
2006,09,11,06,30,9.10
2006,09,11,06,31,9.10
2006,09,11,06,32,9.00
2006,09,11,06,33,9.00
2006,09,11,06,34,9.00
2006,09,11,06,35,8.90
2006,09,11,06,36,8.90
2006,09,11,06,37,8.90
2006,09,11,06,38,8.80
2006,09,11,06,39,8.80
2006,09,11,06,40,8.80
2006,09,11,06,41,8.80
2006,09,11,06,42,8.80
2006,09,11,06,43,8.80
2006,09,11,06,44,8.80
2006,09,11,06,45,8.80
2006,09,11,06,46,8.80
2006,09,11,06,47,8.80
2006,09,11,06,48,8.80
2006,09,11,06,49,8.80
2006,09,11,06,50,8.80
2006,09,11,06,51,8.80
2006,09,11,06,52,8.80
2006,09,11,06,53,8.80
2006,09,11,06,54,8.80
2006,09,11,06,55,8.80
2006,09,11,06,56,8.80
2006,09,11,06,57,8.80
2006,09,11,06,58,8.80
2006,09,11,06,59,8.80
2006,09,11,07,00,8.80
2006,09,11,07,01,8.80
2006,09,11,07,02,8.80
2006,09,11,07,03,8.80
2006,09,11,07,04,8.80
2006,09,11,07,05,8.80
2006,09,11,07,06,8.80
2006,09,11,07,07,8.80
2006,09,11,07,08,8.80
2006,09,11,07,09,8.90
2006,09,11,07,10,8.90
2006,09,11,07,11,8.90
2006,09,11,07,12,8.90
2006,09,11,07,13,9.00
2006,09,11,07,14,9.00
2006,09,11,07,15,9.10
2006,09,11,07,16,9.10
2006,09,11,07,17,9.10
2006,09,11,07,18,9.10
2006,09,11,07,19,9.10
2006,09,11,07,20,9.20
2006,09,11,07,21,9.20
2006,09,11,07,22,9.20
2006,09,11,07,23,9.20
2006,09,11,07,24,9.30
2006,09,11,07,25,9.30
2006,09,11,07,26,9.30
2006,09,11,07,27,9.30
2006,09,11,07,28,9.40
2006,09,11,07,29,9.40
2006,09,11,07,30,9.40
2006,09,11,07,31,9.50
2006,09,11,07,32,9.50
2006,09,11,07,33,9.50
2006,09,11,07,34,9.60
2006,09,11,07,35,9.60
2006,09,11,07,36,9.70
2006,09,11,07,37,9.70
2006,09,11,07,38,9.70
2006,09,11,07,39,9.80
2006,09,11,07,40,9.80
2006,09,11,07,41,9.90
2006,09,11,07,42,9.90
2006,09,11,07,43,10.00
2006,09,11,07,44,10.10
2006,09,11,07,45,10.10
2006,09,11,07,46,10.20
2006,09,11,07,47,10.30
2006,09,11,07,48,10.30
2006,09,11,07,49,10.40
2006,09,11,07,50,10.50
2006,09,11,07,51,10.60
2006,09,11,07,52,10.70
2006,09,11,07,53,10.80
2006,09,11,07,54,10.80
2006,09,11,07,55,10.90
2006,09,11,07,56,11.00
2006,09,11,07,57,11.00
2006,09,11,07,58,11.10
2006,09,11,07,59,11.20
2006,09,11,08,00,11.20
2006,09,11,08,01,11.30
2006,09,11,08,02,11.30
2006,09,11,08,03,11.40
2006,09,11,08,04,11.40
2006,09,11,08,05,11.50
2006,09,11,08,06,11.60
2006,09,11,08,07,11.60
2006,09,11,08,08,11.70
2006,09,11,08,09,11.80
2006,09,11,08,10,11.80
2006,09,11,08,11,11.90
2006,09,11,08,12,12.00
2006,09,11,08,13,12.10
2006,09,11,08,14,12.10
2006,09,11,08,15,12.20
2006,09,11,08,16,12.30
2006,09,11,08,17,12.30
2006,09,11,08,18,12.40
2006,09,11,08,19,12.40
2006,09,11,08,20,12.50
2006,09,11,08,21,12.50
2006,09,11,08,22,12.60
2006,09,11,08,23,12.60
2006,09,11,08,24,12.70
2006,09,11,08,25,12.70
2006,09,11,08,26,12.80
2006,09,11,08,27,12.80
2006,09,11,08,28,12.80
2006,09,11,08,29,12.90
2006,09,11,08,30,12.90
2006,09,11,08,31,13.00
2006,09,11,08,32,13.00
2006,09,11,08,33,13.10
2006,09,11,08,34,13.10
2006,09,11,08,35,13.20
2006,09,11,08,36,13.30
2006,09,11,08,37,13.40
2006,09,11,08,38,13.50
2006,09,11,08,39,13.50
2006,09,11,08,40,13.60
2006,09,11,08,41,13.70
2006,09,11,08,42,13.80
2006,09,11,08,43,13.80
2006,09,11,08,44,13.90
2006,09,11,08,45,14.00
2006,09,11,08,46,14.10
2006,09,11,08,47,14.20
2006,09,11,08,48,14.30
2006,09,11,08,49,14.30
2006,09,11,08,50,14.40
2006,09,11,08,51,14.50
2006,09,11,08,52,14.60
2006,09,11,08,53,14.80
2006,09,11,08,54,15.00
2006,09,11,08,55,15.00
2006,09,11,08,56,15.10
2006,09,11,08,57,15.20
2006,09,11,08,58,15.30
2006,09,11,08,59,15.40
2006,09,11,09,00,15.50
2006,09,11,09,01,15.50
2006,09,11,09,02,15.60
2006,09,11,09,03,15.70
2006,09,11,09,04,15.80
2006,09,11,09,05,15.80
2006,09,11,09,06,15.90
2006,09,11,09,07,15.90
2006,09,11,09,08,15.90
2006,09,11,09,09,16.00
2006,09,11,09,10,16.00
2006,09,11,09,11,16.10
2006,09,11,09,12,16.20
2006,09,11,09,13,16.20
2006,09,11,09,14,16.30
2006,09,11,09,15,16.40
2006,09,11,09,16,16.40
2006,09,11,09,17,16.40
2006,09,11,09,18,16.40
2006,09,11,09,19,16.40
2006,09,11,09,20,16.50
2006,09,11,09,21,16.60
2006,09,11,09,22,16.60
2006,09,11,09,23,16.70
2006,09,11,09,24,16.80
2006,09,11,09,25,16.90
2006,09,11,09,26,16.90
2006,09,11,09,27,17.00
2006,09,11,09,28,17.10
2006,09,11,09,29,17.30
2006,09,11,09,30,17.40
2006,09,11,09,31,17.50
2006,09,11,09,32,17.70
2006,09,11,09,33,17.80
2006,09,11,09,34,17.90
2006,09,11,09,35,18.00
2006,09,11,09,36,18.00
2006,09,11,09,37,18.10
2006,09,11,09,38,18.20
2006,09,11,09,39,18.20
2006,09,11,09,40,18.30
2006,09,11,09,41,18.30
2006,09,11,09,42,18.30
2006,09,11,09,43,18.30
2006,09,11,09,44,18.30
2006,09,11,09,45,18.20
2006,09,11,09,46,18.20
2006,09,11,09,47,18.20
2006,09,11,09,48,18.20
2006,09,11,09,49,18.30
2006,09,11,09,50,18.40
2006,09,11,09,51,18.40
2006,09,11,09,52,18.50
2006,09,11,09,53,18.50
2006,09,11,09,54,18.60
2006,09,11,09,55,18.50
2006,09,11,09,56,18.50
2006,09,11,09,57,18.50
2006,09,11,09,58,18.40
2006,09,11,09,59,18.30
2006,09,11,10,00,18.40
2006,09,11,10,01,18.50
2006,09,11,10,02,18.60
2006,09,11,10,03,18.60
2006,09,11,10,04,18.70
2006,09,11,10,05,18.70
2006,09,11,10,06,18.70
2006,09,11,10,07,18.60
2006,09,11,10,08,18.50
2006,09,11,10,09,18.40
2006,09,11,10,10,18.30
2006,09,11,10,11,18.30
2006,09,11,10,12,18.40
2006,09,11,10,13,18.50
2006,09,11,10,14,18.50
2006,09,11,10,15,18.60
2006,09,11,10,16,18.60
2006,09,11,10,17,18.70
2006,09,11,10,18,18.70
2006,09,11,10,19,18.80
2006,09,11,10,20,18.90
2006,09,11,10,21,18.90
2006,09,11,10,22,18.90
2006,09,11,10,23,18.90
2006,09,11,10,24,18.90
2006,09,11,10,25,19.00
2006,09,11,10,26,19.10
2006,09,11,10,27,19.20
2006,09,11,10,28,19.20
2006,09,11,10,29,19.30
2006,09,11,10,30,19.20
2006,09,11,10,31,19.10
2006,09,11,10,32,19.10
2006,09,11,10,33,19.20
2006,09,11,10,34,19.20
2006,09,11,10,35,19.30
2006,09,11,10,36,19.40
2006,09,11,10,37,19.50
2006,09,11,10,38,19.60
2006,09,11,10,39,19.60
2006,09,11,10,40,19.70
2006,09,11,10,41,19.70
2006,09,11,10,42,19.70
2006,09,11,10,43,19.70
2006,09,11,10,44,19.70
2006,09,11,10,45,19.80
2006,09,11,10,46,19.80
2006,09,11,10,47,19.90
2006,09,11,10,48,20.00
2006,09,11,10,49,20.10
2006,09,11,10,50,20.20
2006,09,11,10,51,20.20
2006,09,11,10,52,20.20
2006,09,11,10,53,20.10
2006,09,11,10,54,20.10
2006,09,11,10,55,20.10
2006,09,11,10,56,20.00
2006,09,11,10,57,19.90
2006,09,11,10,58,19.80
2006,09,11,10,59,19.70
2006,09,11,11,00,19.80
2006,09,11,11,01,19.80
2006,09,11,11,02,19.90
2006,09,11,11,03,19.90
2006,09,11,11,04,19.80
2006,09,11,11,05,19.80
2006,09,11,11,06,19.70
2006,09,11,11,07,19.70
2006,09,11,11,08,19.70
2006,09,11,11,09,19.70
2006,09,11,11,10,19.80
2006,09,11,11,11,19.90
2006,09,11,11,12,20.00
2006,09,11,11,13,20.20
2006,09,11,11,14,20.10
2006,09,11,11,15,19.90
2006,09,11,11,16,19.60
2006,09,11,11,17,19.40
2006,09,11,11,18,19.20
2006,09,11,11,19,19.10
2006,09,11,11,20,19.10
2006,09,11,11,21,19.10
2006,09,11,11,22,19.00
2006,09,11,11,23,18.90
2006,09,11,11,24,18.90
2006,09,11,11,25,18.90
2006,09,11,11,26,18.90
2006,09,11,11,27,18.80
2006,09,11,11,28,18.90
2006,09,11,11,29,19.00
2006,09,11,11,30,19.10
2006,09,11,11,31,19.10
2006,09,11,11,32,19.10
2006,09,11,11,33,19.10
2006,09,11,11,34,19.20
2006,09,11,11,35,19.10
2006,09,11,11,36,19.10
2006,09,11,11,37,19.10
2006,09,11,11,38,19.20
2006,09,11,11,39,19.30
2006,09,11,11,40,19.30
2006,09,11,11,41,19.30
2006,09,11,11,42,19.30
2006,09,11,11,43,19.30
2006,09,11,11,44,19.30
2006,09,11,11,45,19.30
2006,09,11,11,46,19.30
2006,09,11,11,47,19.30
2006,09,11,11,48,19.30
2006,09,11,11,49,19.20
2006,09,11,11,50,19.10
2006,09,11,11,51,19.10
2006,09,11,11,52,19.10
2006,09,11,11,53,19.00
2006,09,11,11,54,18.90
2006,09,11,11,55,18.90
2006,09,11,11,56,18.80
2006,09,11,11,57,18.80
2006,09,11,11,58,18.90
2006,09,11,11,59,18.90
2006,09,11,12,00,18.80
2006,09,11,12,01,18.80
2006,09,11,12,02,18.80
2006,09,11,12,03,18.80
2006,09,11,12,04,18.90
2006,09,11,12,05,19.00
2006,09,11,12,06,19.10
2006,09,11,12,07,19.10
2006,09,11,12,08,19.10
2006,09,11,12,09,19.00
2006,09,11,12,10,18.90
2006,09,11,12,11,18.90
2006,09,11,12,12,18.90
2006,09,11,12,13,18.80
2006,09,11,12,14,18.80
2006,09,11,12,15,18.80
2006,09,11,12,16,18.90
2006,09,11,12,17,18.90
2006,09,11,12,18,18.90
2006,09,11,12,19,18.90
2006,09,11,12,20,18.90
2006,09,11,12,21,18.90
2006,09,11,12,22,18.90
2006,09,11,12,23,18.90
2006,09,11,12,24,18.90
2006,09,11,12,25,18.90
2006,09,11,12,26,18.90
2006,09,11,12,27,19.00
2006,09,11,12,28,19.00
2006,09,11,12,29,19.10
2006,09,11,12,30,19.10
2006,09,11,12,31,19.20
2006,09,11,12,32,19.30
2006,09,11,12,33,19.40
2006,09,11,12,34,19.50
2006,09,11,12,35,19.50
2006,09,11,12,36,19.60
2006,09,11,12,37,19.70
2006,09,11,12,38,19.70
2006,09,11,12,39,19.70
2006,09,11,12,40,19.60
2006,09,11,12,41,19.60
2006,09,11,12,42,19.50
2006,09,11,12,43,19.50
2006,09,11,12,44,19.50
2006,09,11,12,45,19.40
2006,09,11,12,46,19.30
2006,09,11,12,47,19.30
2006,09,11,12,48,19.40
2006,09,11,12,49,19.40
2006,09,11,12,50,19.30
2006,09,11,12,51,19.40
2006,09,11,12,52,19.40
2006,09,11,12,53,19.30
2006,09,11,12,54,19.30
2006,09,11,12,55,19.30
2006,09,11,12,56,19.30
2006,09,11,12,57,19.30
2006,09,11,12,58,19.30
2006,09,11,12,59,19.30
2006,09,11,13,00,19.30
2006,09,11,13,01,19.30
2006,09,11,13,02,19.20
2006,09,11,13,03,19.10
2006,09,11,13,04,19.00
2006,09,11,13,05,18.90
2006,09,11,13,06,18.80
2006,09,11,13,07,18.70
2006,09,11,13,08,18.70
2006,09,11,13,09,18.70
2006,09,11,13,10,18.70
2006,09,11,13,11,18.80
2006,09,11,13,12,18.90
2006,09,11,13,13,18.90
2006,09,11,13,14,19.00
2006,09,11,13,15,19.00
2006,09,11,13,16,19.10
2006,09,11,13,17,19.10
2006,09,11,13,18,19.20
2006,09,11,13,19,19.20
2006,09,11,13,20,19.30
2006,09,11,13,21,19.50
2006,09,11,13,22,19.50
2006,09,11,13,23,19.50
2006,09,11,13,24,19.50
2006,09,11,13,25,19.40
2006,09,11,13,26,19.40
2006,09,11,13,27,19.40
2006,09,11,13,28,19.50
2006,09,11,13,29,19.50
2006,09,11,13,30,19.60
2006,09,11,13,31,19.70
2006,09,11,13,32,19.70
2006,09,11,13,33,19.80
2006,09,11,13,34,19.90
2006,09,11,13,35,20.00
2006,09,11,13,36,19.90
2006,09,11,13,37,19.80
2006,09,11,13,38,19.80
2006,09,11,13,39,19.80
2006,09,11,13,40,19.80
2006,09,11,13,41,19.80
2006,09,11,13,42,19.80
2006,09,11,13,43,19.90
2006,09,11,13,44,19.90
2006,09,11,13,45,20.00
2006,09,11,13,46,20.00
2006,09,11,13,47,20.00
2006,09,11,13,48,20.10
2006,09,11,13,49,20.10
2006,09,11,13,50,20.20
2006,09,11,13,51,20.30
2006,09,11,13,52,20.30
2006,09,11,13,53,20.30
2006,09,11,13,54,20.30
2006,09,11,13,55,20.30
2006,09,11,13,56,20.20
2006,09,11,13,57,20.20
2006,09,11,13,58,20.20
2006,09,11,13,59,20.20
2006,09,11,14,00,20.20
2006,09,11,14,01,20.30
2006,09,11,14,02,20.30
2006,09,11,14,03,20.30
2006,09,11,14,04,20.30
2006,09,11,14,05,20.30
2006,09,11,14,06,20.30
2006,09,11,14,07,20.30
2006,09,11,14,08,20.40
2006,09,11,14,09,20.50
2006,09,11,14,10,20.60
2006,09,11,14,11,20.60
2006,09,11,14,12,20.60
2006,09,11,14,13,20.60
2006,09,11,14,14,20.60
2006,09,11,14,15,20.70
2006,09,11,14,16,20.70
2006,09,11,14,17,20.80
2006,09,11,14,18,20.90
2006,09,11,14,19,21.00
2006,09,11,14,20,21.00
2006,09,11,14,21,21.10
2006,09,11,14,22,21.10
2006,09,11,14,23,21.10
2006,09,11,14,24,21.10
2006,09,11,14,25,21.00
2006,09,11,14,26,21.00
2006,09,11,14,27,21.10
2006,09,11,14,28,21.10
2006,09,11,14,29,21.30
2006,09,11,14,30,21.40
2006,09,11,14,31,21.40
2006,09,11,14,32,21.40
2006,09,11,14,33,21.30
2006,09,11,14,34,21.20
2006,09,11,14,35,21.20
2006,09,11,14,36,21.30
2006,09,11,14,37,21.30
2006,09,11,14,38,21.40
2006,09,11,14,39,21.40
2006,09,11,14,40,21.50
2006,09,11,14,41,21.50
2006,09,11,14,42,21.40
2006,09,11,14,43,21.30
2006,09,11,14,44,21.20
2006,09,11,14,45,21.20
2006,09,11,14,46,21.30
2006,09,11,14,47,21.30
2006,09,11,14,48,21.30
2006,09,11,14,49,21.40
2006,09,11,14,50,21.30
2006,09,11,14,51,21.20
2006,09,11,14,52,21.30
2006,09,11,14,53,21.20
2006,09,11,14,54,21.20
2006,09,11,14,55,21.40
2006,09,11,14,56,21.40
2006,09,11,14,57,21.50
2006,09,11,14,58,21.50
2006,09,11,14,59,21.40
2006,09,11,15,00,21.40
2006,09,11,15,01,21.30
2006,09,11,15,02,21.20
2006,09,11,15,03,21.20
2006,09,11,15,04,21.10
2006,09,11,15,05,21.20
2006,09,11,15,06,21.20
2006,09,11,15,07,21.10
2006,09,11,15,08,21.10
2006,09,11,15,09,21.10
2006,09,11,15,10,21.10
2006,09,11,15,11,21.10
2006,09,11,15,12,21.10
2006,09,11,15,13,21.10
2006,09,11,15,14,21.00
2006,09,11,15,15,21.00
2006,09,11,15,16,21.00
2006,09,11,15,17,21.00
2006,09,11,15,18,21.10
2006,09,11,15,19,21.10
2006,09,11,15,20,21.20
2006,09,11,15,21,21.30
2006,09,11,15,22,21.40
2006,09,11,15,23,21.40
2006,09,11,15,24,21.30
2006,09,11,15,25,21.20
2006,09,11,15,26,21.10
2006,09,11,15,27,20.90
2006,09,11,15,28,20.90
2006,09,11,15,29,20.80
2006,09,11,15,30,20.80
2006,09,11,15,31,20.90
2006,09,11,15,32,20.90
2006,09,11,15,33,20.90
2006,09,11,15,34,20.90
2006,09,11,15,35,20.80
2006,09,11,15,36,20.80
2006,09,11,15,37,20.80
2006,09,11,15,38,20.80
2006,09,11,15,39,20.80
2006,09,11,15,40,20.80
2006,09,11,15,41,20.90
2006,09,11,15,42,20.90
2006,09,11,15,43,20.90
2006,09,11,15,44,20.80
2006,09,11,15,45,20.80
2006,09,11,15,46,20.80
2006,09,11,15,47,20.90
2006,09,11,15,48,21.00
2006,09,11,15,49,21.10
2006,09,11,15,50,21.10
2006,09,11,15,51,21.00
2006,09,11,15,52,21.00
2006,09,11,15,53,20.90
2006,09,11,15,54,20.90
2006,09,11,15,55,20.90
2006,09,11,15,56,20.90
2006,09,11,15,57,20.90
2006,09,11,15,58,20.90
2006,09,11,15,59,20.90
2006,09,11,16,00,20.90
2006,09,11,16,01,21.00
2006,09,11,16,02,21.10
2006,09,11,16,03,21.10
2006,09,11,16,04,21.20
2006,09,11,16,05,21.30
2006,09,11,16,06,21.40
2006,09,11,16,07,21.40
2006,09,11,16,08,21.40
2006,09,11,16,09,21.50
2006,09,11,16,10,21.60
2006,09,11,16,11,21.60
2006,09,11,16,12,21.70
2006,09,11,16,13,21.70
2006,09,11,16,14,21.70
2006,09,11,16,15,21.70
2006,09,11,16,16,21.80
2006,09,11,16,17,21.90
2006,09,11,16,18,21.90
2006,09,11,16,19,21.90
2006,09,11,16,20,21.80
2006,09,11,16,21,21.90
2006,09,11,16,22,21.90
2006,09,11,16,23,21.80
2006,09,11,16,24,21.80
2006,09,11,16,25,21.90
2006,09,11,16,26,21.90
2006,09,11,16,27,22.00
2006,09,11,16,28,22.00
2006,09,11,16,29,21.90
2006,09,11,16,30,21.90
2006,09,11,16,31,21.90
2006,09,11,16,32,22.00
2006,09,11,16,33,22.00
2006,09,11,16,34,22.10
2006,09,11,16,35,22.10
2006,09,11,16,36,22.10
2006,09,11,16,37,22.10
2006,09,11,16,38,22.20
2006,09,11,16,39,22.20
2006,09,11,16,40,22.20
2006,09,11,16,41,22.20
2006,09,11,16,42,22.20
2006,09,11,16,43,22.20
2006,09,11,16,44,22.20
2006,09,11,16,45,22.30
2006,09,11,16,46,22.40
2006,09,11,16,47,22.30
2006,09,11,16,48,22.30
2006,09,11,16,49,22.30
2006,09,11,16,50,22.30
2006,09,11,16,51,22.20
2006,09,11,16,52,22.20
2006,09,11,16,53,22.20
2006,09,11,16,54,22.20
2006,09,11,16,55,22.10
2006,09,11,16,56,22.10
2006,09,11,16,57,22.10
2006,09,11,16,58,22.10
2006,09,11,16,59,22.10
2006,09,11,17,00,22.10
2006,09,11,17,01,22.20
2006,09,11,17,02,22.20
2006,09,11,17,03,22.20
2006,09,11,17,04,22.10
2006,09,11,17,05,22.10
2006,09,11,17,06,22.00
2006,09,11,17,07,21.90
2006,09,11,17,08,21.90
2006,09,11,17,09,21.90
2006,09,11,17,10,21.90
2006,09,11,17,11,21.90
2006,09,11,17,12,22.00
2006,09,11,17,13,22.00
2006,09,11,17,14,21.90
2006,09,11,17,15,21.80
2006,09,11,17,16,21.80
2006,09,11,17,17,21.80
2006,09,11,17,18,21.80
2006,09,11,17,19,21.90
2006,09,11,17,20,21.90
2006,09,11,17,21,21.90
2006,09,11,17,22,21.90
2006,09,11,17,23,21.80
2006,09,11,17,24,21.70
2006,09,11,17,25,21.70
2006,09,11,17,26,21.70
2006,09,11,17,27,21.70
2006,09,11,17,28,21.70